FW0416 Weather Reports


time (UTC)temp
F
wind
direction
speed
knots
gust
knots
rain 1hr
in
rain 24hr
in
rain mn
in
humidity
%
barometer
mb
20260906065159 77 146 0.0 0.0 0.00 0.00 0.00 89 1011.0
20260906064655 78 146 0.0 0.0 0.00 0.00 0.00 89 1011.0
20260906064150 78 146 0.0 0.0 0.00 0.00 0.00 88 1010.9
20260906063645 78 146 0.0 0.0 0.00 0.00 0.00 88 1011.0
20260906063141 78 142 0.0 0.0 0.00 0.00 0.00 89 1011.0
20260906062637 78 146 0.0 0.0 0.00 0.00 0.00 89 1010.9
20260906062135 78 146 0.0 0.0 0.00 0.00 0.00 89 1011.2
20260906061632 78 146 0.0 0.0 0.00 0.00 0.00 88 1011.0
20260906061131 78 142 0.0 0.0 0.00 0.00 0.00 87 1011.2
20260906060628 78 147 0.0 0.0 0.00 0.00 0.00 87 1011.2
20260906060125 78 148 0.0 0.0 0.00 0.00 0.00 87 1011.3
20260906055620 78 148 0.0 0.0 0.00 0.00 0.00 87 1011.3
20260906055115 78 145 0.0 0.0 0.00 0.00 0.00 87 1011.3
20260906054610 79 147 0.0 0.0 0.00 0.00 0.00 86 1011.5
20260906054105 79 146 0.0 0.0 0.00 0.00 0.00 86 1011.4
20260906053602 79 150 0.0 0.0 0.00 0.00 0.00 86 1011.3
20260906053057 79 138 0.9 0.9 0.00 0.00 0.00 86 1011.3
20260906052552 79 146 0.0 0.0 0.00 0.00 0.00 86 1011.3
20260906052050 79 146 0.0 0.0 0.00 0.00 0.00 86 1011.3
20260906051544 79 150 0.0 0.0 0.00 0.00 0.00 86 1011.1
20260906051040 79 144 0.0 0.0 0.00 0.00 0.00 86 1011.1
20260906050535 78 171 0.0 0.0 0.00 0.00 0.00 87 1011.1
20260906050030 78 158 0.0 0.0 0.00 0.00 0.00 87 1010.9
20260906045523 78 147 0.0 0.0 0.00 0.00 0.00 87 1010.8
20260906045018 79 148 0.0 0.0 0.00 0.00 0.00 86 1010.9
20260906044513 79 148 0.0 0.0 0.00 0.00 0.00 86 1010.8
20260906044009 79 144 0.0 0.0 0.00 0.00 0.00 85 1010.9
20260906043504 79 145 0.0 0.0 0.00 0.00 0.00 85 1010.8
20260906043000 79 144 0.0 0.0 0.00 0.00 0.00 85 1010.8
20260906042459 79 148 0.0 0.0 0.00 0.00 0.00 86 1010.8
20260906041959 79 148 0.0 0.0 0.00 0.00 0.00 86 1010.9
20260906041456 79 139 0.0 0.0 0.00 0.00 0.00 86 1010.8
20260906040955 79 137 0.0 0.0 0.00 0.00 0.00 85 1011.0
20260906040450 80 144 0.0 0.0 0.00 0.00 0.00 85 1010.9
20260906035945 80 145 0.0 0.0 0.00 0.00 0.00 84 1010.8
20260906035440 80 149 0.0 0.0 0.00 0.00 0.00 85 1010.9
20260906034936 80 146 0.0 0.0 0.00 0.00 0.00 84 1010.8
20260906034431 80 145 0.0 0.0 0.00 0.00 0.00 84 1010.9
20260906033926 80 146 0.0 0.0 0.00 0.00 0.00 84 1011.0
20260906033421 80 140 0.0 0.0 0.00 0.00 0.00 83 1010.9
20260906032916 80 148 0.0 0.0 0.00 0.00 0.00 83 1011.1
20260906032413 81 140 0.0 0.0 0.00 0.00 0.00 83 1011.1
20260906031907 81 152 0.0 0.0 0.00 0.00 0.00 82 1011.1
20260906031403 81 148 0.0 0.0 0.00 0.00 0.00 82 1011.2
20260906030858 81 143 0.0 0.0 0.00 0.00 0.00 82 1011.1
20260906030352 82 146 0.0 0.0 0.00 0.00 0.00 81 1011.0
20260906025846 82 150 0.0 0.0 0.00 0.00 0.00 81 1010.9
20260906025341 82 151 0.0 0.0 0.00 0.00 0.00 81 1011.0
20260906024840 82 149 0.0 0.0 0.00 0.00 0.00 80 1011.2
20260906024339 81 144 0.0 0.0 0.00 0.00 0.00 80 1011.2
20260906023835 81 157 0.0 0.0 0.00 0.00 0.00 81 1011.1
20260906023330 81 148 0.0 0.0 0.00 0.00 0.00 81 1011.1
20260906022826 81 148 0.0 0.0 0.00 0.00 0.00 81 1011.0
20260906022321 82 140 0.0 0.0 0.00 0.00 0.00 79 1010.9
20260906021816 83 145 0.0 0.0 0.00 0.00 0.00 77 1011.1
20260906021315 82 157 0.0 0.0 0.00 0.00 0.00 78 1010.9
20260906020810 82 157 0.0 0.0 0.00 0.00 0.00 78 1010.9
20260906020309 82 161 0.0 0.0 0.00 0.00 0.00 78 1010.6
20260906015804 83 146 0.0 0.0 0.00 0.00 0.00 76 1010.4
20260906015305 83 146 0.0 0.0 0.00 0.00 0.00 76 1010.4
20260906014803 83 137 0.0 0.0 0.00 0.00 0.00 76 1010.4
20260906014258 84 143 0.0 0.0 0.00 0.00 0.00 75 1010.3
20260906013755 84 148 0.0 0.0 0.00 0.00 0.00 75 1010.2
20260906013255 84 148 0.0 0.0 0.00 0.00 0.00 75 1010.2
20260906012750 85 148 0.0 0.0 0.00 0.00 0.00 74 1010.0
20260906012245 85 148 0.0 0.0 0.00 0.00 0.00 72 1010.0
20260906011740 85 148 0.0 0.0 0.00 0.00 0.00 72 1009.9
20260906011240 86 148 0.0 0.0 0.00 0.00 0.00 71 1009.9
20260906010735 86 148 0.0 0.0 0.00 0.00 0.00 70 1009.8
20260906010232 86 146 0.0 0.0 0.00 0.00 0.00 70 1010.0
20260906005727 87 151 0.0 0.0 0.00 0.00 0.00 68 1009.8
20260906005226 87 151 0.0 0.0 0.00 0.00 0.00 68 1009.7
20260906004725 88 151 0.0 0.0 0.00 0.00 0.00 68 1009.8
20260906004220 88 155 0.0 0.0 0.00 0.00 0.00 66 1010.0
20260906003715 88 142 0.0 0.0 0.00 0.00 0.00 67 1009.9
20260906003211 89 148 0.0 0.0 0.00 0.00 0.00 65 1009.8
20260906002706 89 148 0.0 0.0 0.00 0.00 0.00 63 1009.8
20260906002201 90 148 0.0 0.0 0.00 0.00 0.00 62 1009.8
20260906001655 90 148 0.0 0.0 0.00 0.00 0.00 60 1009.7
20260906001155 90 147 0.0 0.0 0.00 0.00 0.00 58 1009.9
20260906000651 91 146 0.0 0.0 0.00 0.00 0.00 57 1009.8
20260906000146 92 148 0.0 0.0 0.00 0.00 0.00 55 1009.4
20260905235645 92 148 0.0 0.0 0.00 0.00 0.00 55 1009.7
20260905235140 93 148 0.0 0.0 0.00 0.00 0.00 55 1009.7
20260905234635 93 148 0.0 0.0 0.00 0.00 0.00 55 1010.0
20260905234131 93 145 0.0 0.0 0.00 0.00 0.00 54 1009.9
20260905233626 94 143 0.0 0.0 0.00 0.00 0.00 53 1009.8
20260905233125 94 147 0.0 0.0 0.00 0.00 0.00 52 1009.7
20260905232621 94 128 0.0 0.0 0.00 0.00 0.00 50 1009.8
20260905232117 95 140 0.0 0.0 0.00 0.00 0.00 53 1009.6
20260905231617 95 144 0.0 0.0 0.00 0.00 0.00 49 1009.8
20260905231113 95 134 0.0 0.0 0.00 0.00 0.00 50 1009.6
20260905230609 96 155 0.0 0.0 0.00 0.00 0.00 49 1009.7
20260905230106 96 153 0.0 0.0 0.00 0.00 0.00 48 1009.6
20260905225600 96 143 0.0 0.0 0.00 0.00 0.00 47 1009.8
20260905225055 96 143 0.0 0.0 0.00 0.00 0.00 47 1009.8
20260905224555 97 145 0.0 0.0 0.00 0.00 0.00 46 1009.7
20260905224055 97 107 0.0 0.0 0.00 0.00 0.00 47 1009.6
20260905223552 97 141 0.0 0.0 0.00 0.00 0.00 46 1009.8
20260905223048 97 126 0.0 0.0 0.00 0.00 0.00 46 1009.8
20260905222548 97 143 0.0 0.0 0.00 0.00 0.00 46 1009.7
20260905222043 97 148 0.0 0.0 0.00 0.00 0.00 45 1009.9
20260905221540 97 127 0.0 0.0 0.00 0.00 0.00 46 1009.9
20260905221036 98 79 0.0 0.9 0.00 0.00 0.00 45 1009.9
20260905220531 97 200 0.0 0.0 0.00 0.00 0.00 45 1009.9
20260905220027 98 126 0.0 0.0 0.00 0.00 0.00 45 1009.9
20260905215526 98 127 1.7 2.6 0.00 0.00 0.00 45 1010.0
20260905215023 98 130 0.0 0.0 0.00 0.00 0.00 46 1009.8
20260905214518 98 146 0.0 0.0 0.00 0.00 0.00 45 1010.0
20260905214013 98 138 0.9 1.7 0.00 0.00 0.00 45 1010.1
20260905213509 98 52 1.7 1.7 0.00 0.00 0.00 43 1009.9
20260905213004 99 95 1.7 2.6 0.00 0.00 0.00 44 1010.0
20260905212459 99 153 0.9 0.9 0.00 0.00 0.00 43 1010.0
20260905211958 99 105 0.0 0.0 0.00 0.00 0.00 43 1010.1
20260905211454 98 174 0.0 0.0 0.00 0.00 0.00 42 1010.1
20260905210949 97 167 0.9 0.9 0.00 0.00 0.00 42 1010.1
20260905210445 96 156 0.0 0.0 0.00 0.00 0.00 48 1010.3
20260905205944 96 107 0.0 0.0 0.00 0.00 0.00 47 1010.1
20260905205439 97 112 0.9 1.7 0.00 0.00 0.00 44 1010.2
20260905204937 97 128 0.0 0.0 0.00 0.00 0.00 45 1010.3
20260905204428 98 137 0.0 0.0 0.00 0.00 0.00 46 1010.3
20260905203927 98 124 0.0 0.0 0.00 0.00 0.00 46 1010.2
20260905203423 98 123 0.9 1.7 0.00 0.00 0.00 44 1010.4
20260905202918 98 148 0.9 0.9 0.00 0.00 0.00 41 1010.6
20260905202413 99 148 0.0 0.0 0.00 0.00 0.00 42 1010.4
20260905201909 100 147 1.7 1.7 0.00 0.00 0.00 42 1010.6
20260905201403 100 112 0.0 0.9 0.00 0.00 0.00 41 1010.5
20260905200858 99 199 1.7 1.7 0.00 0.00 0.00 41 1010.7
20260905200354 99 104 1.7 1.7 0.00 0.00 0.00 42 1010.9
20260905195851 99 133 0.0 0.0 0.00 0.00 0.00 42 1010.8
20260905195347 98 160 0.0 0.0 0.00 0.00 0.00 43 1011.1
20260905194842 97 150 0.0 0.0 0.00 0.00 0.00 46 1011.3
20260905194337 98 145 0.9 0.9 0.00 0.00 0.00 46 1011.3
20260905193836 98 146 0.0 0.0 0.00 0.00 0.00 45 1011.3
20260905193331 99 124 1.7 2.6 0.00 0.00 0.00 45 1011.2
20260905192827 98 141 0.0 0.0 0.00 0.00 0.00 44 1011.4
20260905192323 98 62 2.6 2.6 0.00 0.00 0.00 42 1011.5
20260905191822 99 156 0.0 0.0 0.00 0.00 0.00 43 1011.6
20260905191320 100 193 0.9 1.7 0.00 0.00 0.00 43 1011.6
20260905190819 100 156 0.0 0.0 0.00 0.00 0.00 40 1011.6
20260905190318 100 153 0.9 0.9 0.00 0.00 0.00 42 1011.8
20260905185818 101 106 0.0 0.0 0.00 0.00 0.00 42 1011.7
20260905185313 101 135 0.0 0.0 0.00 0.00 0.00 41 1011.6
20260905184812 101 130 0.0 0.0 0.00 0.00 0.00 41 1011.8
20260905184311 101 175 0.0 0.0 0.00 0.00 0.00 43 1012.0
20260905183810 101 123 0.0 0.0 0.00 0.00 0.00 44 1012.0
20260905183306 100 150 0.9 0.9 0.00 0.00 0.00 46 1012.0
20260905182800 100 153 0.9 0.9 0.00 0.00 0.00 42 1012.3
20260905182300 100 72 1.7 1.7 0.00 0.00 0.00 44 1012.2
20260905181755 101 172 0.9 0.9 0.00 0.00 0.00 42 1012.2
20260905181254 100 161 0.0 0.9 0.00 0.00 0.00 44 1012.2
20260905180749 99 157 0.0 0.0 0.00 0.00 0.00 44 1012.4
20260905180244 98 139 0.9 1.7 0.00 0.00 0.00 44 1012.4
20260905175739 99 56 0.0 0.9 0.00 0.00 0.00 45 1012.5
20260905175233 100 152 0.9 1.7 0.00 0.00 0.00 45 1012.3
20260905174728 98 154 0.0 0.0 0.00 0.00 0.00 46 1012.6
20260905174224 97 69 1.7 1.7 0.00 0.00 0.00 47 1012.5
20260905173720 98 86 0.9 1.7 0.00 0.00 0.00 46 1012.4
20260905173215 99 145 0.9 0.9 0.00 0.00 0.00 44 1012.6
20260905172714 100 106 1.7 1.7 0.00 0.00 0.00 45 1012.7
20260905172209 100 280 1.7 1.7 0.00 0.00 0.00 45 1012.5
20260905171705 99 113 0.9 0.9 0.00 0.00 0.00 47 1012.8
20260905171200 99 241 0.9 1.7 0.00 0.00 0.00 47 1012.7
20260905170658 100 349 1.7 1.7 0.00 0.00 0.00 46 1012.8
20260905170152 98 124 0.9 0.9 0.00 0.00 0.00 47 1013.0
20260905165652 98 113 0.0 0.0 0.00 0.00 0.00 48 1012.8
20260905165147 98 62 1.7 1.7 0.00 0.00 0.00 47 1013.2
20260905164642 98 96 0.0 0.0 0.00 0.00 0.00 47 1013.2
20260905164141 97 108 1.7 1.7 0.00 0.00 0.00 48 1012.9
20260905163637 97 122 2.6 2.6 0.00 0.00 0.00 49 1013.2
20260905163134 98 344 1.7 2.6 0.00 0.00 0.00 49 1013.0
20260905162630 97 146 0.0 0.0 0.00 0.00 0.00 49 1013.0
20260905162129 96 95 0.9 0.9 0.00 0.00 0.00 53 1013.3
20260905161628 96 166 2.6 2.6 0.00 0.00 0.00 53 1013.4
20260905161126 96 144 0.9 0.9 0.00 0.00 0.00 55 1013.6
20260905160621 95 156 0.9 0.9 0.00 0.00 0.00 54 1013.6
20260905160115 95 131 0.0 0.0 0.00 0.00 0.00 54 1013.4
20260905155609 95 136 0.0 0.0 0.00 0.00 0.00 52 1013.6
20260905155108 94 137 0.0 0.0 0.00 0.00 0.00 55 1013.6
20260905154608 93 167 0.0 0.0 0.00 0.00 0.00 57 1013.6
20260905154104 92 139 0.0 0.0 0.00 0.00 0.00 62 1013.5
20260905153600 92 160 0.0 0.9 0.00 0.00 0.00 61 1013.8
20260905153059 92 145 0.0 0.0 0.00 0.00 0.00 60 1013.8
20260905152554 91 135 0.9 0.9 0.00 0.00 0.00 61 1013.8
20260905152049 91 131 0.0 0.9 0.00 0.00 0.00 64 1013.9
20260905151545 90 170 0.0 0.0 0.00 0.00 0.00 65 1013.9
20260905151040 90 128 0.0 0.0 0.00 0.00 0.00 66 1013.8
20260905150535 89 144 0.0 0.0 0.00 0.00 0.00 68 1013.8
20260905150034 88 150 0.0 0.0 0.00 0.00 0.00 71 1013.7
20260905145532 88 152 0.0 0.0 0.00 0.00 0.00 71 1013.6
20260905145032 88 154 1.7 1.7 0.00 0.00 0.00 71 1013.7
20260905144527 87 161 0.9 0.9 0.00 0.00 0.00 73 1013.6
20260905144026 87 158 0.9 0.9 0.00 0.00 0.00 73 1013.6
20260905143525 86 144 0.0 0.0 0.00 0.00 0.00 75 1013.6
20260905143021 86 151 0.0 0.0 0.00 0.00 0.00 78 1013.7
20260905142519 85 145 0.0 0.9 0.00 0.00 0.00 80 1013.7
20260905142015 85 153 0.9 0.9 0.00 0.00 0.00 79 1013.8
20260905141509 85 155 0.0 0.0 0.00 0.00 0.00 80 1013.6
20260905141006 84 136 0.0 0.0 0.00 0.00 0.00 82 1013.5
20260905140500 83 146 0.0 0.0 0.00 0.00 0.00 82 1013.6
20260905135958 83 135 0.0 0.0 0.00 0.00 0.00 84 1013.6
20260905135455 83 149 0.0 0.0 0.00 0.00 0.00 83 1013.8
20260905134950 82 149 0.0 0.0 0.00 0.00 0.00 82 1013.4
20260905134449 81 153 0.0 0.0 0.00 0.00 0.00 84 1013.6
20260905133948 81 146 0.0 0.0 0.00 0.00 0.00 87 1013.5
20260905133443 80 147 0.0 0.0 0.00 0.00 0.00 88 1013.7
20260905132937 80 149 0.0 0.0 0.00 0.00 0.00 88 1013.6
20260905132432 79 149 0.0 0.0 0.00 0.00 0.00 88 1013.6
20260905131928 79 149 0.0 0.0 0.00 0.00 0.00 89 1013.6
20260905131424 79 149 0.0 0.0 0.00 0.00 0.00 89 1013.6
20260905130924 78 149 0.0 0.0 0.00 0.00 0.00 88 1013.6
20260905130423 78 158 0.0 0.0 0.00 0.00 0.00 89 1013.4
20260905125923 77 152 0.0 0.0 0.00 0.00 0.00 90 1013.3
20260905125418 77 152 0.0 0.0 0.00 0.00 0.00 91 1013.5
20260905124914 76 156 0.0 0.0 0.00 0.00 0.00 93 1013.5
20260905124410 76 150 0.0 0.0 0.00 0.00 0.00 93 1013.5
20260905123910 75 157 0.0 0.0 0.00 0.00 0.00 94 1013.7
20260905123407 75 156 0.0 0.0 0.00 0.00 0.00 94 1013.5
20260905122902 74 144 0.0 0.0 0.00 0.00 0.00 95 1013.6
20260905122400 74 140 0.0 0.0 0.00 0.00 0.00 95 1013.7
20260905121857 74 137 0.0 0.0 0.00 0.00 0.00 95 1013.4
20260905121353 74 145 0.0 0.0 0.00 0.00 0.00 95 1013.4
20260905120851 74 148 0.0 0.0 0.00 0.00 0.00 95 1013.2
20260905120346 74 148 0.0 0.0 0.00 0.00 0.00 95 1013.3
20260905115841 74 148 0.0 0.0 0.00 0.00 0.00 95 1013.3
20260905115340 74 152 0.0 0.0 0.00 0.00 0.00 95 1013.2
20260905114835 74 152 0.0 0.0 0.00 0.00 0.00 95 1012.9
20260905114334 74 152 0.0 0.0 0.00 0.00 0.00 95 1013.2
20260905113833 74 148 0.0 0.0 0.00 0.00 0.00 95 1013.2
20260905113329 74 141 0.0 0.0 0.00 0.00 0.00 95 1013.0
20260905112824 74 139 0.0 0.0 0.00 0.00 0.00 95 1013.0
20260905112319 74 152 0.0 0.0 0.00 0.00 0.00 95 1012.8
20260905111815 74 141 0.0 0.0 0.00 0.00 0.00 94 1012.9
20260905111315 74 136 0.0 0.0 0.00 0.00 0.00 94 1012.8
20260905110814 74 141 0.0 0.0 0.00 0.00 0.00 94 1012.9
20260905110308 74 140 0.0 0.0 0.00 0.00 0.00 95 1012.9
20260905105804 74 150 0.0 0.0 0.00 0.00 0.00 95 1013.0
20260905105306 74 148 0.0 0.0 0.00 0.00 0.00 94 1012.6
20260905104757 74 143 0.0 0.0 0.00 0.00 0.00 94 1012.6
20260905104254 75 144 0.0 0.0 0.00 0.00 0.00 94 1012.8
20260905103753 75 139 0.0 0.0 0.00 0.00 0.00 94 1012.6
20260905103249 75 147 0.0 0.0 0.00 0.00 0.00 94 1012.7
20260905102744 75 147 0.0 0.0 0.00 0.00 0.00 94 1012.8
20260905102241 75 147 0.0 0.0 0.00 0.00 0.00 94 1012.6
20260905101740 75 144 0.0 0.0 0.00 0.00 0.00 94 1012.7
20260905101238 75 148 0.0 0.0 0.00 0.00 0.00 94 1012.9
20260905100734 75 148 0.0 0.0 0.00 0.00 0.00 94 1012.7
20260905100229 75 134 0.0 0.0 0.00 0.00 0.00 94 1012.5
20260905095724 75 147 0.0 0.0 0.00 0.00 0.00 94 1012.7
20260905095223 75 146 0.0 0.0 0.00 0.00 0.00 94 1012.7
20260905094719 75 148 0.0 0.0 0.00 0.00 0.00 94 1012.5
20260905094219 75 144 0.0 0.0 0.00 0.00 0.00 94 1012.6
20260905093713 75 150 0.0 0.0 0.00 0.00 0.00 94 1012.8
20260905093209 75 153 0.0 0.0 0.00 0.00 0.00 93 1012.6
20260905092704 75 141 0.0 0.0 0.00 0.00 0.00 93 1012.6
20260905092200 75 144 0.0 0.0 0.00 0.00 0.00 92 1012.6
20260905091659 75 146 0.0 0.0 0.00 0.00 0.00 92 1012.7
20260905091153 75 146 0.0 0.0 0.00 0.00 0.00 92 1012.8
20260905090648 75 146 0.0 0.0 0.00 0.00 0.00 92 1012.5
20260905090144 75 144 0.0 0.0 0.00 0.00 0.00 92 1012.5
20260905085642 75 147 0.0 0.0 0.00 0.00 0.00 92 1012.5
20260905085137 75 144 0.0 0.0 0.00 0.00 0.00 92 1012.5
20260905084637 76 143 0.0 0.0 0.00 0.00 0.00 92 1012.5
20260905084132 76 144 0.0 0.0 0.00 0.00 0.00 91 1012.4
20260905083632 76 144 0.0 0.0 0.00 0.00 0.00 91 1012.4
20260905083128 76 151 0.0 0.0 0.00 0.00 0.00 92 1012.4
20260905082624 76 155 0.0 0.0 0.00 0.00 0.00 92 1012.3
20260905082120 76 148 0.0 0.0 0.00 0.00 0.00 92 1012.4
20260905081619 76 144 0.0 0.0 0.00 0.00 0.00 91 1012.5
20260905081114 76 143 0.0 0.0 0.00 0.00 0.00 91 1012.8
20260905080608 76 144 0.0 0.0 0.00 0.00 0.00 91 1012.5
20260905075602 76 145 0.0 0.0 0.00 0.00 0.00 92 1012.5
20260905075102 76 152 0.0 0.0 0.00 0.00 0.00 92 1012.6
20260905074601 76 146 0.0 0.0 0.00 0.00 0.00 92 1012.6
20260905074057 76 146 0.0 0.0 0.00 0.00 0.00 91 1012.8
20260905073552 76 146 0.0 0.0 0.00 0.00 0.00 91 1012.9
20260905073048 76 146 0.0 0.0 0.00 0.00 0.00 91 1012.6
20260905072547 76 148 0.0 0.0 0.00 0.00 0.00 91 1012.6
20260905072042 76 148 0.0 0.0 0.00 0.00 0.00 91 1012.8
20260905071539 76 148 0.0 0.0 0.00 0.00 0.00 91 1012.8
20260905071034 76 148 0.0 0.0 0.00 0.00 0.00 91 1012.7
20260905070530 76 146 0.0 0.0 0.00 0.00 0.00 91 1012.8
20260905070026 76 144 0.0 0.0 0.00 0.00 0.00 91 1012.9